COSMOS 800

导读

COSMOS 800(宇宙800)是苏联/俄罗斯“宇宙”(Cosmos/Kosmos)系列无人卫星,1976年2月3日由苏联(CIS前身)发射入轨。宇宙系列是世界上规模最大的卫星家族,涵盖科学研究、军事侦察、技术试验等多类任务,多数为军用用途,还编入了不少试验航天器与发射失利探测器。COSMOS 800延续了该系列多用途设计,是冷战时期苏联航天探索的一环,丰富了人类对近地空间活动的实践积累。

Basic Information
目录编号:
8645
目录名称:
COSMOS 800
国际标识:
1976-011A
轨道中心:
EARTH
卫星名称:
COSMOS 800
卫星全名:
--
卫星状态:
在轨 (已飞行18395 天)
发射日期:
1976-02-03 UTC
国别 :
俄罗斯(独联体) (CIS)
星等 :
--
Orbit Information
数据来源 国际轨道数据 AOE轨道数据
星历时间 2026-06-15T06:53:10+0800
6小时前
查看轨道信息
2026-06-13T06:00:00+0800
2天前
查看轨道信息
半长轴 7369.815km 7369.816km
偏心率 0.0021181 0.0021298
轨道倾角 82.972° 82.972°
近地点辐角 350.886° 357.259°
升交点赤经 118.269° 119.766°
平近点角 72.208° 89.266°
近地点 976.067km 975.982km
远地点 1007.289km 1007.376km
周期 104.941分钟 104.941分钟
每日圈数 13.722015 13.722014
Detailed Information
使用方式:
暂无
2D Orbit Map
3D Orbit Map
Orbit Altitude Analysis Chart
Orbit Inclination Analysis Chart
Orbit Comprehensive Analysis Chart
View Comprehensive Chart